Regional Weather Roundup
Issued by NWS

Home | Current Version | Previous Version | Text Only | Print | Product List | Glossary Off
Versions: 1 2 3 4 5 6 7 8 9 10 11 12 13 14 15 16 17 18 19 20 21 22 23 24 25 26 27 28 29 30 31 32 33 34 35 36 37 38 39 40 41 42 43 44 45 46 47 48 49 50

000
ASUS43 KLSX 180757
RWRMO

WEATHER SUMMARY FOR MISSOURI
NATIONAL WEATHER SERVICE SPRINGFIELD MO
200 AM CST SUN FEB 18 2018

NOTE: "FAIR" INDICATES FEW OR NO CLOUDS BELOW 12,000 FEET WITH NO
       SIGNIFICANT WEATHER AND/OR OBSTRUCTIONS TO VISIBILITY.
       CURRENT SKY AND/OR WEATHER CONDITIONS ARE NOT AVAILABLE FOR
       CHILLICOTHE AND FARMINGTON.

MOZ001>031-035>038-043-044-053-054-180900-
...NORTHERN AND WESTERN MISSOURI...

CITY           SKY/WX    TMP DP  RH WIND       PRES   REMARKS
KANSAS CTY INT CLEAR     35  20  54 S12       30.13F WCI  27
LEE`S SUMMIT   CLOUDY    37  21  52 SE10      30.15F WCI  30
ST JOSEPH      CLEAR     22  19  89 W5        30.13F WCI  16
CHILLICOTHE      N/A     22  18  85 CALM      30.18F

$$
MOZ066>068-077>081-088>096-101>105-180900-
...SOUTHWEST MISSOURI...

CITY           SKY/WX    TMP DP  RH WIND       PRES   REMARKS
SPRINGFIELD    CLOUDY    33  32  96 S8        30.23R WCI  26
JOPLIN         CLOUDY    37  35  92 SE8       30.21F

$$
MOZ032>034-039>042-045>050-055>058-069>072-180900-
...CENTRAL MISSOURI...

CITY           SKY/WX    TMP DP  RH WIND       PRES   REMARKS
COLUMBIA       NOT AVBL
JEFFERSON CITY CLEAR     25  23  92 SE3       30.25R
ROLLA          CLEAR     27  23  85 SE8       30.24S WCI  19
SEDALIA        CLOUDY    29  23  78 SE8       30.21F WCI  21
WARRENSBURG    CLOUDY    30  21  69 SE6       30.19F WCI  24

$$
MOZ051-052-059>065-180900-
...EAST CENTRAL MISSOURI...

CITY           SKY/WX    TMP DP  RH WIND       PRES   REMARKS
ST LOUIS INTL  CLEAR     28  27  96 CALM      30.27R
SPIRIT OF STL  PTCLDY    25  25 100 CALM      30.27R FOG

$$
MOZ072>076-082>087-097>100-106>115-180900-
...SOUTH CENTRAL AND SOUTHEAST MISSOURI...

CITY           SKY/WX    TMP DP  RH WIND       PRES   REMARKS
CAPE GIRARDEAU FOG       31  31 100 CALM      30.30R VSB<1/4
FARMINGTON     FOG       25  25 100 CALM      30.28R VSB 1
POPLAR BLUFF   FAIR      30  30 100 CALM      30.29R FOG
WEST PLAINS    CLOUDY    30  28  92 CALM      30.26R FOG

$$


USA.gov is the U.S. government's official web portal to all federal, state and local government web resources and services.